FENGYUN 1C DEB, 36659

Orbit data source: Space-Track

FENGYUN 1C DEB, 36659 is space debris in SSO originally from a launch on Mon, 10 May 1999 UTC launched from the Taiyaun Space Center, China (TSC). Fengyun 1C debris stems from the Chinese weather satellite Fengyun-1C, which was intentionally destroyed by a Chinese anti-satellite missile in 2007. This event dramatically increased the amount of space debris, with thousands of trackable fragments posing hazards to satellites and human spaceflight. The Fengyun 1C debris cloud has become a focal point in discussions about space sustainability and the need for international regulations to prevent the creation of new debris.

Loading next visibility...
Identifier
36659, 1999-025DYD
Orbit
SSO
Country
Flag of CNCN / PRC
Related business
Manufacturer
Unknown
Mission
Spacecraft
Bus & Motor
Unknown
Mass
Unknown
Launch date (UTC)
1999-05-10 (27 years ago)
Launch vehicle
Unknown
Launch site
Taiyaun Space Center, China (TSC)
Object type
Payload
Rocket body
Debris
Shape & HBR
Unknown shape, 0.1 m
Radar Cross Section
Small (<0.1 m²)

Expand to show TLE details & history
Last TLE update: 2 days ago

TLE from 2 days ago
0 FENGYUN 1C DEB
1 36659U 99025DYD 25352.29796359  .00000735  00000-0  61832-3 0  9999
2 36659  99.8541 356.0810 0135792  60.2917 301.1674 13.87384482605025
Epoch: 2025-12-18T07:09Z
TLE epoch observation values (Epoch: 2025-12-18T07:09:04.054Z)
Latitude
-0°
Longitude
161.65863°
Altitude
890.216 km
Speed
7.433 km/s
True Right ascension
23h 44m 19s
True Declination
0° 00' 00"
Sunlit
Object was in daylight at epoch
Visualization orbit readout
Latitude
Unknown
Longitude
Unknown
Altitude
Unknown
Speed
Unknown
Apparent Right ascension
Unknown
Apparent Declination
Unknown
Sunlit
N/A
Visualization observer readout
Local Sidereal Time
21:34:02
Azimuth
Unknown
Elevation
Unknown
Doppler factor
Unknown
Orbital elements
Apogee altitude
1,034.378 km
Perigee altitude
835.763 km
Semi-major axis
7,313.207 km
Eccentricity
0.01358
Inclination
99.8541°
RAAN
356.081°
Arg. of periapsis
60.2917°
True anomaly
299.82427°
Mean anomaly
301.1674°
Eccentric anomaly
300.49701°
Mean motion
3.47041 °/min
Orbital period
103.73 mins
BSTAR
0.00061832
Loading maneuver chart data...
Computing Atmospheric mass density...
Loading historical data...
Loading historical data...
Loading historical data...
Loading historical data...
Loading historical data...
Loading historical data...
Loading historical data...

Documentation

Showing up to 5 results
|